Location: Burera
(21.3780°N, 81.9534°E)
Time: 00:52:09
(UTC+00:00)

Intelsat 5-1 Rocket - Pass Details

Date: 13 August 2020
Orbit: 312 x 7605 km, 23.9° (Epoch: 22 September)

Event Time Altitude Azimuth Distance (km) Brightness Sun altitude
Exits shadow 21:57:21 48° 200° (SSW) 1,967 4.2 -29.3°
Maximum altitude 21:59:52 60° 150° (SSE) 2,113 4.6 -28.8°
Drops below altitude 10° 22:22:36 10° 77° (ENE) 8,288 8.8 -24.1°
Sets 22:32:57 0° 75° (ENE) 10,610 9.7 -22.0°
